contact:dominique.lefevre@mio.osupytheas.fr, maurice.libes@osupytheas.fr, didier.mallarino@osupytheas.fr
Project:EMSO http://www.emso-fr.org/EMSO-France
Depth: 2436.0 m
Title:EMSO Ligure Ouest : Data MII capteur AQUADOPP
Date,Latitude,Longitude,X_East,Y_North,Z_Up,Amplitude_X,Amplitude_Y,Amplitude_Z,Batterie,SoundSpeed,Heading,Pitch,Roll,Pressure,TIS,Speed,Direction
, degrees North, degrees East, m.s-1, m.s-1,m.s-1, 1, 1, 1, Volt, m.s-1, degree, degree, degree, dbar, degree_C, m.s-1, degree
2019-07-27T00:01:44,42.805,6.029,0.031,0.008,-0.047,101.0,120.0,99.0,13.3,1505.3,326.2,-0.7,1.8,2470.111,13.32,0.032,75.5
2019-07-27T00:04:45,42.805,6.029,0.041,0.0,-0.056,103.0,118.0,99.0,13.4,1505.3,322.9,-0.7,1.8,2470.067,13.32,0.041,90.0
2019-07-27T00:07:46,42.805,6.029,0.055,0.01,-0.034,102.0,122.0,98.0,13.4,1505.3,323.0,-0.7,1.8,2470.095,13.32,0.055,79.7
2019-07-27T00:10:47,42.805,6.029,0.045,0.013,-0.035,102.0,115.0,99.0,13.3,1505.3,325.3,-0.7,1.8,2470.093,13.32,0.046,73.9
2019-07-27T00:13:48,42.805,6.029,0.043,0.015,-0.028,102.0,116.0,100.0,13.4,1505.3,323.7,-0.7,1.8,2470.073,13.32,0.045,70.8
2019-07-27T00:16:49,42.805,6.029,0.044,0.018,-0.013,101.0,120.0,98.0,13.3,1505.3,325.4,-0.7,1.9,2470.099,13.32,0.047,67.8
2019-07-27T00:19:50,42.805,6.029,0.052,-0.017,-0.018,101.0,114.0,98.0,13.4,1505.3,326.4,-0.7,1.8,2470.114,13.32,0.054,108.1
2019-07-27T00:22:51,42.805,6.029,0.056,0.029,-0.017,101.0,116.0,98.0,13.4,1505.3,324.7,-0.7,1.8,2470.139,13.32,0.063,62.6
2019-07-27T00:25:52,42.805,6.029,0.064,0.042,0.01,101.0,117.0,98.0,13.3,1505.3,323.6,-0.7,1.8,2470.075,13.32,0.076,56.7
2019-07-27T00:28:53,42.805,6.029,0.052,0.003,-0.036,102.0,116.0,98.0,13.3,1505.3,324.2,-0.7,1.8,2470.096,13.32,0.052,86.7
2019-07-27T00:31:54,42.805,6.029,0.045,0.018,-0.01,101.0,118.0,98.0,13.3,1505.3,323.5,-0.7,1.8,2470.071,13.32,0.048,68.2
2019-07-27T00:34:55,42.805,6.029,0.053,0.034,-0.02,100.0,117.0,97.0,13.3,1505.3,325.2,-0.7,1.8,2470.093,13.32,0.062,57.3
2019-07-27T00:37:56,42.805,6.029,0.038,0.022,-0.06,101.0,117.0,97.0,13.3,1505.3,326.1,-0.7,1.8,2470.07,13.32,0.043,59.9
2019-07-27T00:40:57,42.805,6.029,0.041,0.007,-0.029,100.0,116.0,98.0,13.4,1505.3,327.0,-0.7,1.8,2470.085,13.32,0.041,80.3
2019-07-27T00:43:58,42.805,6.029,0.034,0.022,-0.027,102.0,118.0,98.0,13.3,1505.3,326.6,-0.7,1.9,2470.096,13.32,0.04,57.1
2019-07-27T00:46:59,42.805,6.029,0.035,0.01,-0.024,102.0,116.0,98.0,13.4,1505.3,324.3,-0.7,1.8,2470.065,13.32,0.036,74.1
2019-07-27T00:50:00,42.805,6.029,0.049,0.009,-0.011,100.0,122.0,97.0,13.4,1505.3,324.3,-0.7,1.8,2470.079,13.32,0.049,79.6
2019-07-27T00:53:01,42.805,6.029,0.039,0.013,-0.033,102.0,112.0,97.0,13.4,1505.3,325.9,-0.7,1.9,2470.104,13.32,0.041,71.6
2019-07-27T00:56:02,42.805,6.029,0.035,0.002,-0.008,101.0,113.0,98.0,13.4,1505.3,323.6,-0.7,1.8,2470.095,13.32,0.035,86.7
2019-07-27T00:59:03,42.805,6.029,0.051,0.026,-0.007,100.0,117.0,97.0,13.4,1505.3,322.8,-0.7,1.8,2470.117,13.32,0.057,63.0
2019-07-27T01:02:04,42.805,6.029,0.038,0.019,-0.025,101.0,113.0,98.0,13.4,1505.3,323.0,-0.7,1.8,2470.074,13.32,0.042,63.4
2019-07-27T01:05:05,42.805,6.029,0.055,0.006,-0.042,101.0,115.0,97.0,13.4,1505.3,323.1,-0.7,1.8,2470.13,13.32,0.055,83.8
2019-07-27T01:08:06,42.805,6.029,0.065,0.004,-0.025,100.0,115.0,97.0,13.4,1505.3,323.7,-0.7,1.9,2470.077,13.32,0.065,86.5
2019-07-27T01:11:07,42.805,6.029,0.04,-0.003,-0.091,100.0,116.0,98.0,13.3,1505.3,325.9,-0.7,1.8,2470.108,13.32,0.04,94.3
2019-07-27T01:14:08,42.805,6.029,0.037,0.0,-0.001,99.0,116.0,98.0,13.4,1505.3,324.9,-0.7,1.8,2470.107,13.32,0.037,90.0
2019-07-27T01:17:09,42.805,6.029,0.05,0.003,-0.041,101.0,114.0,99.0,13.3,1505.3,324.6,-0.7,1.8,2470.073,13.32,0.05,86.6
2019-07-27T01:20:10,42.805,6.029,0.032,0.02,-0.009,100.0,114.0,98.0,13.3,1505.3,326.5,-0.7,1.8,2470.116,13.32,0.037,58.0
2019-07-27T01:23:11,42.805,6.029,0.043,0.0,-0.022,100.0,117.0,97.0,13.4,1505.3,326.8,-0.7,1.9,2470.087,13.32,0.043,90.0
2019-07-27T01:26:12,42.805,6.029,0.057,-0.003,-0.016,101.0,118.0,98.0,13.4,1505.3,324.4,-0.7,1.8,2470.131,13.32,0.057,93.0
2019-07-27T01:29:13,42.805,6.029,0.03,0.016,-0.036,101.0,114.0,97.0,13.4,1505.3,327.4,-0.7,1.8,2470.11,13.32,0.034,61.9
2019-07-27T01:32:14,42.805,6.029,0.031,0.037,-0.031,101.0,112.0,97.0,13.4,1505.3,326.3,-0.7,1.8,2470.121,13.32,0.048,40.0
2019-07-27T01:35:15,42.805,6.029,0.038,0.012,-0.013,101.0,120.0,97.0,13.4,1505.3,326.3,-0.7,1.8,2470.117,13.32,0.039,72.5
2019-07-27T01:38:16,42.805,6.029,0.037,0.023,-0.069,100.0,116.0,98.0,13.4,1505.3,323.7,-0.7,1.9,2470.099,13.32,0.043,58.1
2019-07-27T01:41:17,42.805,6.029,0.022,0.019,-0.035,101.0,114.0,98.0,13.3,1505.3,325.0,-0.7,1.8,2470.094,13.32,0.029,49.2
2019-07-27T01:44:18,42.805,6.029,0.033,-0.011,-0.034,101.0,117.0,100.0,13.4,1505.3,327.0,-0.7,1.9,2470.079,13.32,0.034,108.4
2019-07-27T01:47:19,42.805,6.029,0.034,0.005,-0.028,102.0,117.0,96.0,13.4,1505.3,325.2,-0.7,1.8,2470.075,13.32,0.034,81.6
2019-07-27T01:50:20,42.805,6.029,0.045,-0.002,-0.017,100.0,114.0,97.0,13.4,1505.3,327.9,-0.7,1.9,2470.113,13.32,0.045,92.5
2019-07-27T01:53:21,42.805,6.029,0.041,0.006,-0.017,100.0,115.0,99.0,13.4,1505.3,326.4,-0.7,1.8,2470.137,13.32,0.041,81.7
2019-07-27T01:56:22,42.805,6.029,0.056,0.001,-0.045,100.0,113.0,98.0,13.4,1505.3,325.2,-0.8,1.8,2470.077,13.32,0.056,89.0
2019-07-27T01:59:23,42.805,6.029,0.049,0.02,-0.009,101.0,114.0,98.0,13.4,1505.3,327.2,-0.7,1.9,2470.065,13.32,0.052,67.8
2019-07-27T02:02:24,42.805,6.029,0.07,0.02,-0.002,102.0,118.0,98.0,13.4,1505.3,325.2,-0.7,1.8,2470.138,13.32,0.072,74.1
2019-07-27T02:05:25,42.805,6.029,0.044,-0.006,-0.026,100.0,112.0,98.0,13.3,1505.3,327.9,-0.7,1.8,2470.109,13.32,0.044,97.8
2019-07-27T02:08:26,42.805,6.029,0.061,0.009,-0.014,101.0,113.0,97.0,13.4,1505.3,326.2,-0.7,1.8,2470.107,13.32,0.061,81.6
2019-07-27T02:11:27,42.805,6.029,0.037,0.008,-0.059,101.0,112.0,97.0,13.3,1505.3,325.6,-0.7,1.8,2470.106,13.32,0.037,77.8
2019-07-27T02:14:28,42.805,6.029,0.04,0.001,-0.031,101.0,117.0,97.0,13.4,1505.3,324.9,-0.7,1.8,2470.132,13.32,0.04,88.6
2019-07-27T02:17:29,42.805,6.029,0.049,0.023,-0.032,101.0,116.0,98.0,13.4,1505.3,324.6,-0.7,1.8,2470.139,13.32,0.054,64.9
2019-07-27T02:20:30,42.805,6.029,0.033,-0.011,-0.026,99.0,116.0,97.0,13.3,1505.3,327.8,-0.7,1.8,2470.138,13.32,0.034,108.4
2019-07-27T02:23:31,42.805,6.029,0.035,0.033,-0.004,102.0,113.0,97.0,13.4,1505.3,324.3,-0.7,1.8,2470.084,13.32,0.048,46.7
2019-07-27T02:26:32,42.805,6.029,0.026,0.017,-0.053,103.0,110.0,98.0,13.4,1505.3,326.4,-0.7,1.9,2470.116,13.32,0.031,56.8
2019-07-27T02:29:33,42.805,6.029,0.031,0.011,-0.04,101.0,114.0,97.0,13.4,1505.3,325.3,-0.7,1.8,2470.136,13.32,0.032,70.5
2019-07-27T02:32:34,42.805,6.029,0.031,0.022,-0.047,101.0,118.0,96.0,13.4,1505.3,325.9,-0.7,1.8,2470.15,13.32,0.038,54.6
2019-07-27T02:35:35,42.805,6.029,0.033,0.006,-0.009,100.0,116.0,99.0,13.4,1505.3,326.3,-0.7,1.8,2470.111,13.32,0.033,79.7
2019-07-27T02:38:36,42.805,6.029,0.035,0.005,-0.032,101.0,116.0,97.0,13.4,1505.3,327.0,-0.7,1.8,2470.091,13.32,0.035,81.9
2019-07-27T02:41:37,42.805,6.029,0.035,0.023,-0.032,101.0,119.0,98.0,13.3,1505.3,324.2,-0.7,1.8,2470.166,13.32,0.041,56.7
2019-07-27T02:44:38,42.805,6.029,0.053,-0.011,-0.064,101.0,114.0,98.0,13.4,1505.3,327.6,-0.7,1.8,2470.068,13.32,0.054,101.7
2019-07-27T02:47:39,42.805,6.029,0.055,0.009,-0.006,103.0,113.0,97.0,13.4,1505.3,327.0,-0.7,1.9,2470.098,13.32,0.055,80.7
2019-07-27T02:50:40,42.805,6.029,0.013,0.014,-0.036,103.0,119.0,96.0,13.4,1505.3,324.7,-0.7,1.8,2470.068,13.32,0.019,42.9
2019-07-27T02:53:41,42.805,6.029,0.032,0.014,-0.026,103.0,116.0,98.0,13.3,1505.3,324.8,-0.7,1.9,2470.154,13.32,0.034,66.4
2019-07-27T02:56:42,42.805,6.029,0.046,-0.007,-0.047,101.0,115.0,98.0,13.4,1505.3,326.3,-0.7,1.8,2470.122,13.32,0.046,98.7
2019-07-27T02:59:43,42.805,6.029,0.03,0.02,-0.011,101.0,118.0,98.0,13.4,1505.3,326.8,-0.7,1.9,2470.133,13.32,0.036,56.3
2019-07-27T03:02:44,42.805,6.029,0.037,0.03,-0.033,102.0,119.0,98.0,13.4,1505.3,323.2,-0.7,1.8,2470.121,13.32,0.047,51.0
2019-07-27T03:05:45,42.805,6.029,0.011,0.004,-0.035,103.0,115.0,97.0,13.3,1505.3,326.3,-0.7,1.8,2470.13,13.32,0.011,70.0
2019-07-27T03:08:46,42.805,6.029,0.008,0.011,-0.048,102.0,118.0,97.0,13.4,1505.3,328.1,-0.7,1.8,2470.116,13.32,0.013,36.0
2019-07-27T03:11:47,42.805,6.029,0.068,-0.025,-0.021,101.0,111.0,98.0,13.4,1505.3,327.8,-0.7,1.9,2470.141,13.32,0.072,110.2
2019-07-27T03:14:48,42.805,6.029,0.036,0.013,-0.044,103.0,118.0,98.0,13.3,1505.3,326.1,-0.7,1.8,2470.109,13.32,0.038,70.1
2019-07-27T03:17:49,42.805,6.029,0.057,0.02,-0.011,102.0,116.0,99.0,13.3,1505.3,326.0,-0.7,1.8,2470.168,13.32,0.06,70.7
2019-07-27T03:20:50,42.805,6.029,0.035,0.0,-0.011,102.0,117.0,98.0,13.4,1505.3,326.8,-0.8,1.8,2470.108,13.32,0.035,90.0
2019-07-27T03:23:51,42.805,6.029,0.019,0.001,-0.027,102.0,116.0,98.0,13.4,1505.3,328.0,-0.7,1.8,2470.109,13.32,0.019,87.0
2019-07-27T03:26:52,42.805,6.029,0.024,0.009,-0.014,102.0,119.0,99.0,13.4,1505.3,325.1,-0.7,1.8,2470.09,13.32,0.025,69.4
2019-07-27T03:29:53,42.805,6.029,0.037,-0.016,-0.052,102.0,116.0,100.0,13.3,1505.3,325.1,-0.7,1.9,2470.109,13.32,0.04,113.4
2019-07-27T03:32:54,42.805,6.029,0.041,0.024,-0.042,102.0,116.0,99.0,13.3,1505.3,324.6,-0.7,1.8,2470.117,13.32,0.047,59.7
2019-07-27T03:35:55,42.805,6.029,0.036,0.04,-0.031,102.0,116.0,99.0,13.3,1505.3,323.3,-0.7,1.8,2470.105,13.32,0.053,42.0
2019-07-27T03:38:56,42.805,6.029,0.044,0.008,-0.021,102.0,113.0,99.0,13.3,1505.3,327.1,-0.7,1.8,2470.101,13.32,0.044,79.7
2019-07-27T03:41:57,42.805,6.029,0.023,0.021,-0.025,103.0,115.0,98.0,13.4,1505.3,325.4,-0.7,1.8,2470.096,13.32,0.031,47.6
2019-07-27T03:44:58,42.805,6.029,0.023,0.004,-0.025,102.0,117.0,100.0,13.4,1505.3,325.0,-0.7,1.8,2470.109,13.32,0.023,80.1
2019-07-27T03:47:59,42.805,6.029,0.045,0.016,-0.035,103.0,114.0,98.0,13.4,1505.3,324.7,-0.8,1.9,2470.069,13.32,0.047,70.4
2019-07-27T03:51:00,42.805,6.029,0.038,0.015,-0.02,102.0,114.0,99.0,13.4,1505.3,323.8,-0.7,1.9,2470.091,13.32,0.04,68.5
2019-07-27T03:54:01,42.805,6.029,0.047,0.023,-0.044,100.0,114.0,99.0,13.3,1505.3,324.8,-0.7,1.8,2470.108,13.32,0.052,63.9
2019-07-27T03:57:02,42.805,6.029,0.045,0.004,-0.007,103.0,117.0,99.0,13.4,1505.3,322.9,-0.7,1.8,2470.076,13.32,0.045,84.9
2019-07-27T04:00:03,42.805,6.029,0.064,0.011,-0.012,101.0,117.0,98.0,13.4,1505.3,326.7,-0.7,1.8,2470.129,13.32,0.064,80.2
2019-07-27T04:03:04,42.805,6.029,0.06,0.001,-0.031,102.0,116.0,100.0,13.4,1505.3,324.6,-0.7,1.8,2470.115,13.32,0.06,89.0
2019-07-27T04:06:05,42.805,6.029,0.038,0.011,-0.049,102.0,117.0,99.0,13.4,1505.3,323.6,-0.7,1.9,2470.124,13.32,0.039,73.9
2019-07-27T04:09:06,42.805,6.029,0.049,0.016,-0.016,103.0,115.0,98.0,13.4,1505.3,325.7,-0.7,1.9,2470.08,13.32,0.051,71.9
2019-07-27T04:12:07,42.805,6.029,0.028,0.013,-0.044,102.0,113.0,99.0,13.3,1505.3,323.0,-0.8,1.8,2470.075,13.32,0.03,65.1
2019-07-27T04:15:08,42.805,6.029,0.027,0.005,-0.009,105.0,115.0,98.0,13.3,1505.3,325.5,-0.7,1.8,2470.085,13.32,0.027,79.5
2019-07-27T04:18:09,42.805,6.029,0.057,0.008,-0.033,102.0,114.0,98.0,13.4,1505.3,323.8,-0.7,1.9,2470.123,13.32,0.057,82.0
2019-07-27T04:21:10,42.805,6.029,0.036,0.008,-0.025,102.0,113.0,99.0,13.4,1505.3,324.1,-0.7,1.8,2470.12,13.32,0.036,77.5
2019-07-27T04:24:11,42.805,6.029,0.021,0.028,-0.005,103.0,115.0,99.0,13.3,1505.3,327.1,-0.7,1.8,2470.101,13.32,0.035,36.9
2019-07-27T04:27:12,42.805,6.029,0.046,0.0,-0.005,101.0,114.0,99.0,13.3,1505.3,324.8,-0.7,1.8,2470.085,13.32,0.046,90.0
2019-07-27T04:30:13,42.805,6.029,0.046,0.018,-0.005,102.0,113.0,99.0,13.4,1505.3,324.6,-0.7,1.8,2470.119,13.32,0.049,68.6
2019-07-27T04:33:14,42.805,6.029,0.027,0.01,-0.063,102.0,115.0,100.0,13.4,1505.3,327.0,-0.7,1.8,2470.118,13.32,0.028,69.7
2019-07-27T04:36:15,42.805,6.029,0.05,0.005,-0.04,101.0,113.0,99.0,13.4,1505.3,326.6,-0.7,1.9,2470.1,13.32,0.05,84.3
2019-07-27T04:39:16,42.805,6.029,0.043,-0.021,-0.028,103.0,112.0,99.0,13.3,1505.3,324.8,-0.7,1.8,2470.128,13.32,0.047,116.0
2019-07-27T04:42:17,42.805,6.029,0.044,-0.009,-0.022,102.0,110.0,100.0,13.3,1505.3,326.8,-0.7,1.8,2470.107,13.32,0.044,101.6
2019-07-27T04:45:18,42.805,6.029,0.017,0.005,-0.008,102.0,114.0,99.0,13.3,1505.3,325.5,-0.7,1.8,2470.081,13.32,0.017,73.6
2019-07-27T04:48:19,42.805,6.029,0.04,0.0,-0.044,103.0,114.0,98.0,13.4,1505.3,325.0,-0.7,1.9,2470.078,13.32,0.04,90.0
2019-07-27T04:51:20,42.805,6.029,0.045,0.002,-0.036,102.0,112.0,99.0,13.4,1505.3,327.5,-0.7,1.8,2470.108,13.32,0.045,87.5
2019-07-27T04:54:21,42.805,6.029,0.032,-0.004,-0.006,102.0,113.0,100.0,13.4,1505.3,324.4,-0.8,1.9,2470.09,13.32,0.032,97.1
2019-07-27T04:57:22,42.805,6.029,0.015,0.005,-0.031,102.0,114.0,99.0,13.4,1505.3,323.6,-0.7,1.9,2470.109,13.32,0.015,71.6
2019-07-27T05:00:23,42.805,6.029,0.028,0.008,-0.013,103.0,113.0,100.0,13.3,1505.3,323.7,-0.7,1.8,2470.051,13.32,0.029,74.1
2019-07-27T05:03:24,42.805,6.029,0.017,0.02,-0.048,102.0,112.0,98.0,13.3,1505.3,323.2,-0.7,1.8,2470.037,13.32,0.026,40.4
2019-07-27T05:06:25,42.805,6.029,0.043,-0.003,-0.03,102.0,110.0,99.0,13.4,1505.3,324.4,-0.7,1.9,2470.042,13.32,0.043,94.0
2019-07-27T05:09:26,42.805,6.029,0.043,0.008,-0.054,101.0,116.0,99.0,13.3,1505.3,323.3,-0.8,1.8,2470.105,13.32,0.043,79.5
2019-07-27T05:12:27,42.805,6.029,0.057,0.017,-0.012,103.0,112.0,99.0,13.4,1505.3,324.7,-0.7,1.9,2470.065,13.32,0.059,73.4
2019-07-27T05:15:28,42.805,6.029,0.053,-0.003,-0.029,103.0,111.0,100.0,13.4,1505.3,326.2,-0.7,1.8,2470.047,13.32,0.053,93.2
2019-07-27T05:18:29,42.805,6.029,0.058,0.012,-0.006,103.0,113.0,98.0,13.4,1505.3,326.0,-0.7,1.8,2470.103,13.32,0.059,78.3
2019-07-27T05:21:30,42.805,6.029,0.026,-0.003,-0.036,102.0,114.0,99.0,13.4,1505.3,327.8,-0.7,1.8,2470.056,13.32,0.026,96.6
2019-07-27T05:24:31,42.805,6.029,0.04,0.0,-0.032,103.0,111.0,98.0,13.4,1505.3,323.0,-0.7,1.9,2470.121,13.32,0.04,90.0
2019-07-27T05:27:32,42.805,6.029,0.04,0.004,-0.041,102.0,112.0,98.0,13.4,1505.3,324.8,-0.7,1.9,2470.084,13.32,0.04,84.3
2019-07-27T05:30:33,42.805,6.029,0.048,-0.016,-0.012,103.0,111.0,99.0,13.3,1505.3,326.4,-0.7,1.8,2470.038,13.32,0.05,108.4
2019-07-27T05:33:34,42.805,6.029,0.042,-0.006,-0.038,102.0,112.0,99.0,13.4,1505.3,324.8,-0.7,1.9,2470.026,13.32,0.042,98.1
2019-07-27T05:36:35,42.805,6.029,0.036,0.008,-0.003,102.0,112.0,97.0,13.3,1505.3,325.6,-0.7,1.8,2470.053,13.32,0.036,77.5
2019-07-27T05:39:36,42.805,6.029,0.059,0.003,-0.03,101.0,113.0,97.0,13.3,1505.3,325.2,-0.7,1.9,2470.1,13.32,0.059,87.1
2019-07-27T05:42:37,42.805,6.029,0.021,0.012,-0.042,101.0,111.0,100.0,13.4,1505.3,328.5,-0.7,1.8,2470.091,13.32,0.024,60.3
2019-07-27T05:45:38,42.805,6.029,0.024,0.029,-0.032,102.0,112.0,98.0,13.3,1505.3,323.4,-0.7,1.8,2470.061,13.32,0.037,39.6
2019-07-27T05:48:39,42.805,6.029,0.046,0.0,-0.022,102.0,111.0,98.0,13.3,1505.3,327.3,-0.7,1.8,2470.072,13.32,0.046,90.0
2019-07-27T05:51:40,42.805,6.029,0.049,0.0,-0.018,101.0,113.0,99.0,13.4,1505.3,327.4,-0.7,1.8,2470.007,13.32,0.049,90.0
2019-07-27T05:54:41,42.805,6.029,0.048,-0.008,-0.028,102.0,108.0,98.0,13.3,1505.3,326.1,-0.7,1.8,2470.063,13.32,0.048,99.5
2019-07-27T05:57:42,42.805,6.029,0.036,-0.009,-0.032,103.0,110.0,98.0,13.4,1505.3,327.3,-0.7,1.8,2470.045,13.32,0.037,104.0
2019-07-27T06:00:43,42.805,6.029,0.045,0.0,-0.022,103.0,111.0,99.0,13.4,1505.3,323.0,-0.7,1.9,2470.048,13.32,0.045,90.0
2019-07-27T06:03:44,42.805,6.029,0.038,0.019,0.002,103.0,111.0,100.0,13.4,1505.3,324.2,-0.7,1.8,2470.064,13.32,0.042,63.4
2019-07-27T06:06:45,42.805,6.029,0.025,0.002,-0.048,100.0,113.0,99.0,13.4,1505.3,324.4,-0.7,1.8,2470.038,13.32,0.025,85.4
2019-07-27T06:09:46,42.805,6.029,0.041,0.014,-0.031,102.0,110.0,97.0,13.4,1505.3,327.8,-0.7,1.9,2470.065,13.32,0.043,71.1
2019-07-27T06:12:47,42.805,6.029,0.054,0.021,-0.036,102.0,112.0,99.0,13.4,1505.3,325.4,-0.7,1.9,2470.016,13.32,0.057,68.8
2019-07-27T06:15:48,42.805,6.029,0.043,-0.01,-0.017,102.0,114.0,99.0,13.4,1505.3,326.4,-0.7,1.9,2470.015,13.32,0.044,103.1
2019-07-27T06:18:49,42.805,6.029,0.036,0.016,0.0,102.0,113.0,98.0,13.4,1505.3,326.2,-0.7,1.8,2470.026,13.32,0.039,66.0
2019-07-27T06:21:50,42.805,6.029,0.056,-0.007,-0.018,101.0,109.0,98.0,13.4,1505.3,326.0,-0.7,1.8,2470.025,13.32,0.056,97.1
2019-07-27T06:24:51,42.805,6.029,0.058,0.016,-0.018,103.0,108.0,98.0,13.3,1505.3,326.7,-0.7,1.8,2470.016,13.32,0.06,74.6
2019-07-27T06:27:52,42.805,6.029,0.032,-0.012,0.0,102.0,109.0,99.0,13.4,1505.3,324.5,-0.7,1.8,2470.01,13.32,0.034,110.6
2019-07-27T06:30:53,42.805,6.029,0.041,0.001,-0.029,102.0,111.0,100.0,13.4,1505.3,325.9,-0.7,1.8,2470.028,13.32,0.041,88.6
2019-07-27T06:33:54,42.805,6.029,0.043,-0.007,0.015,103.0,112.0,98.0,13.4,1505.3,327.1,-0.7,1.8,2469.987,13.32,0.043,99.2
2019-07-27T06:36:55,42.805,6.029,0.046,-0.003,-0.031,102.0,112.0,99.0,13.3,1505.3,325.2,-0.7,1.8,2470.0,13.32,0.046,93.7
2019-07-27T06:39:56,42.805,6.029,0.023,0.027,-0.032,103.0,111.0,98.0,13.4,1505.3,323.3,-0.7,1.8,2469.993,13.32,0.035,40.4
2019-07-27T06:42:57,42.805,6.029,0.048,0.001,-0.02,105.0,111.0,99.0,13.4,1505.3,323.0,-0.7,1.8,2470.02,13.32,0.048,88.8
2019-07-27T06:45:58,42.805,6.029,0.063,0.017,-0.024,103.0,112.0,99.0,13.4,1505.3,325.4,-0.7,1.8,2470.011,13.32,0.065,74.9
2019-07-27T06:48:59,42.805,6.029,0.045,-0.002,-0.039,102.0,111.0,98.0,13.4,1505.3,325.8,-0.7,1.8,2469.992,13.32,0.045,92.5
2019-07-27T06:52:00,42.805,6.029,0.066,-0.007,0.001,103.0,113.0,99.0,13.4,1505.3,326.6,-0.7,1.8,2470.002,13.32,0.066,96.1
2019-07-27T06:55:01,42.805,6.029,0.028,0.005,-0.016,103.0,110.0,99.0,13.3,1505.3,326.5,-0.7,1.8,2470.023,13.32,0.028,79.9
2019-07-27T06:58:02,42.805,6.029,0.027,-0.019,-0.008,103.0,110.0,98.0,13.4,1505.3,326.1,-0.7,1.9,2470.011,13.32,0.033,125.1
2019-07-27T07:01:03,42.805,6.029,0.049,-0.004,-0.031,103.0,110.0,99.0,13.4,1505.3,326.0,-0.8,1.8,2470.012,13.32,0.049,94.7
2019-07-27T07:04:04,42.805,6.029,0.046,0.01,-0.02,102.0,111.0,98.0,13.4,1505.3,325.9,-0.7,1.9,2470.021,13.32,0.047,77.7
2019-07-27T07:07:05,42.805,6.029,0.046,0.007,-0.028,101.0,111.0,99.0,13.3,1505.3,324.4,-0.7,1.8,2470.048,13.32,0.046,81.3
2019-07-27T07:10:06,42.805,6.029,0.054,-0.001,-0.018,101.0,111.0,99.0,13.3,1505.3,323.2,-0.7,1.8,2470.023,13.32,0.054,91.1
2019-07-27T07:13:07,42.805,6.029,0.041,0.013,-0.026,104.0,111.0,99.0,13.4,1505.3,325.9,-0.7,1.8,2469.98,13.32,0.043,72.4
2019-07-27T07:16:08,42.805,6.029,0.025,-0.001,-0.06,103.0,110.0,99.0,13.4,1505.3,326.0,-0.7,1.8,2470.026,13.32,0.025,92.3
2019-07-27T07:19:09,42.805,6.029,0.041,0.018,-0.005,102.0,110.0,99.0,13.4,1505.3,324.7,-0.7,1.8,2469.988,13.32,0.044,66.3
2019-07-27T07:22:10,42.805,6.029,0.041,-0.003,-0.046,101.0,112.0,99.0,13.4,1505.3,325.2,-0.7,1.8,2470.036,13.32,0.041,94.2
2019-07-27T07:25:11,42.805,6.029,0.037,0.011,-0.034,103.0,112.0,96.0,13.4,1505.3,325.9,-0.7,1.9,2470.047,13.32,0.038,73.4
2019-07-27T07:28:12,42.805,6.029,0.042,-0.011,-0.063,102.0,110.0,99.0,13.4,1505.3,324.6,-0.7,1.8,2470.006,13.32,0.043,104.7
2019-07-27T07:31:13,42.805,6.029,0.023,0.0,-0.018,102.0,111.0,99.0,13.4,1505.3,327.1,-0.7,1.9,2470.023,13.32,0.023,90.0
2019-07-27T07:34:14,42.805,6.029,0.053,0.0,-0.016,103.0,110.0,99.0,13.4,1505.3,327.8,-0.7,1.8,2470.002,13.32,0.053,90.0
2019-07-27T07:37:15,42.805,6.029,0.023,0.0,-0.033,101.0,109.0,100.0,13.3,1505.3,327.7,-0.7,1.9,2469.988,13.32,0.023,90.0
2019-07-27T07:40:16,42.805,6.029,0.018,-0.002,-0.034,101.0,110.0,99.0,13.4,1505.3,324.7,-0.7,1.8,2470.038,13.32,0.018,96.3
2019-07-27T07:43:17,42.805,6.029,0.039,0.002,-0.025,102.0,111.0,99.0,13.3,1505.3,326.0,-0.7,1.8,2469.982,13.32,0.039,87.1
2019-07-27T07:46:18,42.805,6.029,0.043,0.018,0.017,102.0,111.0,98.0,13.4,1505.3,325.1,-0.7,1.9,2469.981,13.32,0.046,67.3
2019-07-27T07:49:19,42.805,6.029,0.031,0.03,-0.023,101.0,113.0,99.0,13.3,1505.3,323.2,-0.7,1.8,2470.051,13.32,0.043,45.9
2019-07-27T07:52:20,42.805,6.029,0.044,0.012,-0.036,101.0,113.0,99.0,13.4,1505.3,326.9,-0.7,1.8,2470.002,13.32,0.045,74.7
2019-07-27T07:55:21,42.805,6.029,0.042,0.009,-0.042,101.0,113.0,98.0,13.3,1505.3,326.9,-0.7,1.8,2470.013,13.32,0.042,77.9
2019-07-27T07:58:22,42.805,6.029,0.036,0.012,-0.024,103.0,112.0,97.0,13.3,1505.3,322.7,-0.7,1.8,2470.008,13.32,0.037,71.6
2019-07-27T08:01:23,42.805,6.029,0.064,0.005,-0.032,103.0,112.0,98.0,13.3,1505.3,326.7,-0.8,1.8,2469.976,13.32,0.064,85.5
2019-07-27T08:04:24,42.805,6.029,0.038,0.007,-0.03,102.0,112.0,97.0,13.3,1505.3,325.8,-0.7,1.8,2470.046,13.32,0.038,79.6
2019-07-27T08:07:25,42.805,6.029,0.026,0.007,-0.021,102.0,112.0,98.0,13.4,1505.3,323.8,-0.7,1.9,2470.009,13.32,0.026,74.9
2019-07-27T08:10:26,42.805,6.029,0.042,0.029,-0.017,102.0,113.0,98.0,13.4,1505.3,326.8,-0.7,1.8,2469.993,13.32,0.051,55.4
2019-07-27T08:13:27,42.805,6.029,0.033,0.003,-0.038,102.0,112.0,99.0,13.4,1505.3,323.2,-0.7,1.9,2469.96,13.32,0.033,84.8
2019-07-27T08:16:28,42.805,6.029,0.033,0.006,-0.018,103.0,113.0,99.0,13.4,1505.3,323.1,-0.7,1.8,2469.969,13.32,0.033,79.7
2019-07-27T08:19:29,42.805,6.029,0.04,-0.007,-0.028,102.0,112.0,98.0,13.3,1505.3,326.9,-0.7,1.8,2469.977,13.32,0.04,99.9
2019-07-27T08:22:30,42.805,6.029,0.052,0.0,-0.018,101.0,111.0,99.0,13.4,1505.3,325.2,-0.7,1.8,2470.03,13.32,0.052,90.0
2019-07-27T08:25:31,42.805,6.029,0.031,0.024,-0.003,101.0,113.0,99.0,13.4,1505.3,325.9,-0.7,1.8,2470.002,13.32,0.039,52.3
2019-07-27T08:28:32,42.805,6.029,0.031,0.0,-0.028,102.0,111.0,98.0,13.4,1505.3,323.2,-0.7,1.8,2469.983,13.32,0.03,90.0
2019-07-27T08:31:33,42.805,6.029,0.033,0.02,-0.024,102.0,112.0,99.0,13.4,1505.3,323.5,-0.7,1.8,2469.984,13.32,0.038,58.8
2019-07-27T08:34:34,42.805,6.029,0.033,0.026,-0.017,103.0,112.0,99.0,13.4,1505.3,324.9,-0.7,1.8,2469.99,13.32,0.042,51.8
2019-07-27T08:37:35,42.805,6.029,0.028,0.0,-0.008,102.0,111.0,98.0,13.4,1505.3,326.8,-0.7,1.9,2469.985,13.32,0.028,90.0
2019-07-27T08:40:36,42.805,6.029,0.013,-0.003,-0.038,103.0,112.0,99.0,13.4,1505.3,324.6,-0.7,1.8,2470.007,13.32,0.013,103.0
2019-07-27T08:43:37,42.805,6.029,0.044,-0.003,-0.012,103.0,112.0,98.0,13.4,1505.3,328.0,-0.7,1.8,2469.985,13.32,0.044,93.9
2019-07-27T08:46:38,42.805,6.029,0.036,-0.001,0.0,102.0,113.0,98.0,13.4,1505.3,327.8,-0.7,1.8,2469.981,13.32,0.036,91.6
2019-07-27T08:49:39,42.805,6.029,0.036,0.014,-0.017,102.0,112.0,99.0,13.3,1505.3,322.9,-0.7,1.8,2470.025,13.32,0.038,68.8
2019-07-27T08:52:40,42.805,6.029,0.028,0.012,-0.03,102.0,113.0,99.0,13.3,1505.3,323.8,-0.7,1.8,2469.971,13.32,0.03,66.8
2019-07-27T08:55:41,42.805,6.029,0.057,-0.006,-0.024,102.0,110.0,99.0,13.4,1505.3,325.0,-0.7,1.8,2469.938,13.32,0.057,96.0
2019-07-27T08:58:42,42.805,6.029,0.048,0.026,-0.019,102.0,112.0,98.0,13.4,1505.3,328.3,-0.7,1.9,2469.971,13.32,0.054,61.6
2019-07-27T09:01:43,42.805,6.029,0.032,-0.009,-0.023,102.0,112.0,99.0,13.4,1505.3,323.9,-0.7,1.9,2470.015,13.32,0.033,105.7
2019-07-27T09:04:44,42.805,6.029,0.038,0.018,-0.023,103.0,113.0,99.0,13.3,1505.3,326.8,-0.7,1.9,2469.989,13.32,0.042,64.7
2019-07-27T09:07:45,42.805,6.029,0.048,0.009,0.037,101.0,115.0,99.0,13.3,1505.3,324.9,-0.7,1.8,2469.962,13.32,0.048,79.4
2019-07-27T09:10:46,42.805,6.029,0.042,0.018,-0.021,102.0,109.0,99.0,13.4,1505.3,323.5,-0.7,1.8,2469.989,13.32,0.045,66.8
2019-07-27T09:13:47,42.805,6.029,0.027,0.0,-0.013,102.0,109.0,99.0,13.3,1505.3,326.7,-0.7,1.8,2469.972,13.32,0.026,90.0
2019-07-27T09:16:48,42.805,6.029,0.035,-0.004,-0.039,102.0,112.0,99.0,13.4,1505.3,324.8,-0.7,1.8,2469.979,13.32,0.035,96.5
2019-07-27T09:19:49,42.805,6.029,0.023,0.012,-0.006,102.0,114.0,98.0,13.3,1505.3,323.5,-0.7,1.8,2469.998,13.32,0.025,62.4
2019-07-27T09:22:50,42.805,6.029,0.043,0.004,-0.001,102.0,112.0,98.0,13.3,1505.3,327.4,-0.7,1.9,2469.995,13.32,0.043,84.7
2019-07-27T09:25:51,42.805,6.029,0.023,0.025,-0.041,102.0,111.0,99.0,13.3,1505.3,323.4,-0.7,1.8,2469.991,13.32,0.033,42.6
2019-07-27T09:28:52,42.805,6.029,0.039,0.015,-0.013,103.0,110.0,99.0,13.4,1505.3,325.3,-0.7,1.9,2469.97,13.32,0.041,69.0
2019-07-27T09:31:53,42.805,6.029,0.03,-0.009,-0.012,101.0,112.0,98.0,13.3,1505.3,323.9,-0.7,1.8,2470.019,13.32,0.031,106.7
2019-07-27T09:34:54,42.805,6.029,0.046,0.02,-0.03,103.0,113.0,98.0,13.4,1505.3,326.9,-0.7,1.9,2469.965,13.32,0.05,66.5
2019-07-27T09:37:55,42.805,6.029,0.036,0.008,-0.022,102.0,114.0,98.0,13.4,1505.3,325.8,-0.7,1.8,2470.017,13.32,0.036,77.5
2019-07-27T09:40:56,42.805,6.029,0.029,-0.002,-0.017,103.0,113.0,98.0,13.4,1505.3,325.6,-0.7,1.8,2469.964,13.32,0.029,93.9